Previsão horária em Juniewicze

Hoje, 23 Junho, Quarta-feira

Tempo Temperatura Precipitação Vento Pressão Humidade
00:00 +19°C° 0 mm 3 m/s 746 mmHg 92%
01:00 +19°C° 0 mm 3 m/s 746 mmHg 92%
02:00 +19°C° 0 mm 2 m/s 745 mmHg 90%
03:00 +20°C° 0 mm 2 m/s 745 mmHg 89%
04:00 +21°C° 0 mm 1 m/s 746 mmHg 89%
05:00 +21°C° 0 mm 1 m/s 746 mmHg 89%
06:00 +23°C° 0 mm 1 m/s 746 mmHg 85%
07:00 +24°C° 0 mm 1 m/s 746 mmHg 81%
08:00 +25°C° 0 mm 1 m/s 747 mmHg 77%
09:00 +27°C° 0.1 mm 1 m/s 747 mmHg 73%
10:00 +28°C° 0.1 mm 1 m/s 747 mmHg 68%
11:00 +30°C° 0.1 mm 1 m/s 747 mmHg 63%
12:00 +30°C° 0.4 mm 1 m/s 747 mmHg 60%
13:00 +31°C° 0.4 mm 2 m/s 748 mmHg 57%
14:00 +32°C° 0.4 mm 2 m/s 748 mmHg 53%
15:00 +32°C° 0 mm 2 m/s 748 mmHg 54%
16:00 +32°C° 0 mm 1 m/s 748 mmHg 55%
17:00 +32°C° 0 mm 1 m/s 748 mmHg 55%
18:00 +30°C° 0.2 mm 1 m/s 748 mmHg 63%
19:00 +29°C° 0.2 mm 2 m/s 748 mmHg 70%
20:00 +27°C° 0.2 mm 2 m/s 748 mmHg 78%
21:00 +26°C° 0.6 mm 2 m/s 748 mmHg 81%
22:00 +25°C° 0.6 mm 2 m/s 748 mmHg 84%
23:00 +24°C° 0.6 mm 2 m/s 748 mmHg 87%

Amanhã, 24 Junho, Quinta-feira

Tempo Temperatura Precipitação Vento Pressão Humidade
00:00 +23°C° 0.3 mm 1 m/s 748 mmHg 89%
01:00 +23°C° 0.3 mm 1 m/s 748 mmHg 91%
02:00 +22°C° 0.3 mm 1 m/s 748 mmHg 92%
03:00 +22°C° 0.5 mm 1 m/s 748 mmHg 93%
04:00 +22°C° 0.5 mm 1 m/s 748 mmHg 93%
05:00 +22°C° 0.5 mm 1 m/s 748 mmHg 93%
06:00 +24°C° 0 mm 1 m/s 748 mmHg 89%
07:00 +23°C° 0 mm 0 m/s 748 mmHg 84%
08:00 +25°C° 0 mm 0 m/s 748 mmHg 80%
09:00 +28°C° 0.3 mm 1 m/s 748 mmHg 75%
10:00 +29°C° 0.3 mm 1 m/s 748 mmHg 70%
11:00 +31°C° 0.3 mm 2 m/s 748 mmHg 65%
12:00 +31°C° 0.1 mm 2 m/s 748 mmHg 60%
13:00 +32°C° 0.1 mm 2 m/s 747 mmHg 55%
14:00 +34°C° 0.1 mm 2 m/s 747 mmHg 51%
15:00 +34°C° 0 mm 3 m/s 746 mmHg 52%
16:00 +34°C° 0 mm 3 m/s 746 mmHg 53%
17:00 +34°C° 0 mm 4 m/s 745 mmHg 54%
18:00 +31°C° 0.3 mm 3 m/s 745 mmHg 62%
19:00 +29°C° 0.3 mm 3 m/s 745 mmHg 70%
20:00 +27°C° 0.3 mm 3 m/s 745 mmHg 78%
21:00 +25°C° 2.4 mm 2 m/s 745 mmHg 83%
22:00 +23°C° 2.4 mm 2 m/s 746 mmHg 89%
23:00 +20°C° 2.4 mm 2 m/s 746 mmHg 94%

Depois de amanhã, 25 Junho, Sexta-feira

Tempo Temperatura Precipitação Vento Pressão Humidade
00:00 +20°C° 0 mm 2 m/s 746 mmHg 94%
01:00 +20°C° 0 mm 3 m/s 745 mmHg 94%
02:00 +20°C° 0 mm 3 m/s 745 mmHg 95%
03:00 +20°C° 0 mm 2 m/s 745 mmHg 94%
04:00 +19°C° 0 mm 2 m/s 745 mmHg 93%
05:00 +20°C° 0 mm 1 m/s 745 mmHg 91%
06:00 +21°C° 0 mm 1 m/s 745 mmHg 88%
07:00 +22°C° 0 mm 1 m/s 745 mmHg 84%
08:00 +23°C° 0 mm 1 m/s 745 mmHg 80%
09:00 +24°C° 0 mm 1 m/s 745 mmHg 75%
10:00 +26°C° 0 mm 1 m/s 745 mmHg 70%
11:00 +27°C° 0 mm 2 m/s 745 mmHg 65%
12:00 +28°C° 0 mm 2 m/s 745 mmHg 63%
13:00 +28°C° 0 mm 3 m/s 745 mmHg 62%
14:00 +29°C° 0 mm 3 m/s 745 mmHg 61%
15:00 +27°C° 0 mm 4 m/s 745 mmHg 66%
16:00 +26°C° 0 mm 4 m/s 745 mmHg 70%
17:00 +25°C° 0 mm 4 m/s 745 mmHg 75%
18:00 +23°C° 0 mm 4 m/s 745 mmHg 77%
19:00 +22°C° 0 mm 4 m/s 745 mmHg 79%
20:00 +21°C° 0 mm 4 m/s 745 mmHg 81%
21:00 +20°C° 0 mm 3 m/s 746 mmHg 84%
22:00 +19°C° 0 mm 3 m/s 746 mmHg 86%
23:00 +18°C° 0 mm 3 m/s 747 mmHg 89%

26 Junho, Sábado

Tempo Temperatura Precipitação Vento Pressão Humidade
00:00 +18°C° 0 mm 3 m/s 746 mmHg 87%
01:00 +18°C° 0 mm 3 m/s 746 mmHg 86%
02:00 +17°C° 0 mm 3 m/s 746 mmHg 84%
03:00 +17°C° 0 mm 3 m/s 746 mmHg 87%
04:00 +17°C° 0 mm 3 m/s 747 mmHg 89%
05:00 +17°C° 0 mm 3 m/s 747 mmHg 92%
06:00 +18°C° 0 mm 3 m/s 747 mmHg 87%
07:00 +19°C° 0 mm 4 m/s 747 mmHg 83%
08:00 +20°C° 0 mm 4 m/s 748 mmHg 79%
09:00 +21°C° 0.1 mm 4 m/s 748 mmHg 74%
10:00 +21°C° 0.1 mm 4 m/s 748 mmHg 69%
11:00 +22°C° 0.1 mm 4 m/s 749 mmHg 65%
12:00 +23°C° 0 mm 4 m/s 749 mmHg 61%
13:00 +25°C° 0 mm 4 m/s 749 mmHg 57%
14:00 +25°C° 0 mm 4 m/s 749 mmHg 54%
15:00 +25°C° 0 mm 3 m/s 749 mmHg 54%
16:00 +25°C° 0 mm 3 m/s 749 mmHg 55%
17:00 +25°C° 0 mm 3 m/s 749 mmHg 55%
18:00 +24°C° 0 mm 3 m/s 748 mmHg 61%
19:00 +22°C° 0 mm 3 m/s 748 mmHg 67%
20:00 +20°C° 0 mm 3 m/s 748 mmHg 73%
21:00 +19°C° 0 mm 2 m/s 748 mmHg 74%
22:00 +18°C° 0 mm 2 m/s 749 mmHg 76%
23:00 +17°C° 0 mm 2 m/s 749 mmHg 78%

27 Junho, Domingo

Tempo Temperatura Precipitação Vento Pressão Humidade
00:00 +16°C° 0 mm 2 m/s 749 mmHg 78%
01:00 +16°C° 0 mm 2 m/s 749 mmHg 79%
02:00 +15°C° 0 mm 2 m/s 750 mmHg 80%
03:00 +15°C° 0 mm 1 m/s 750 mmHg 81%
04:00 +15°C° 0 mm 1 m/s 750 mmHg 82%
05:00 +15°C° 0 mm 1 m/s 750 mmHg 83%
06:00 +16°C° 0 mm 1 m/s 750 mmHg 78%
07:00 +19°C° 0 mm 1 m/s 750 mmHg 73%
08:00 +20°C° 0 mm 2 m/s 750 mmHg 68%
09:00 +21°C° 0 mm 2 m/s 750 mmHg 63%
10:00 +24°C° 0 mm 2 m/s 750 mmHg 59%
11:00 +25°C° 0 mm 2 m/s 750 mmHg 54%
12:00 +26°C° 0 mm 2 m/s 750 mmHg 51%
13:00 +26°C° 0 mm 2 m/s 750 mmHg 48%
14:00 +27°C° 0 mm 2 m/s 750 mmHg 46%
15:00 +27°C° 0 mm 2 m/s 750 mmHg 46%
16:00 +26°C° 0 mm 2 m/s 750 mmHg 47%
17:00 +26°C° 0 mm 2 m/s 750 mmHg 47%
18:00 +25°C° 0 mm 2 m/s 749 mmHg 53%
19:00 +24°C° 0 mm 1 m/s 749 mmHg 59%
20:00 +23°C° 0 mm 1 m/s 749 mmHg 65%
21:00 +22°C° 0 mm 1 m/s 750 mmHg 66%
22:00 +21°C° 0 mm 1 m/s 750 mmHg 66%
23:00 +20°C° 0 mm 1 m/s 750 mmHg 66%

28 Junho, Segunda-feira

Tempo Temperatura Precipitação Vento Pressão Humidade
00:00 +20°C° 0 mm 1 m/s 750 mmHg 68%
01:00 +17°C° 0 mm 0 m/s 750 mmHg 70%
02:00 +17°C° 0 mm 0 m/s 750 mmHg 72%
03:00 +16°C° 0 mm 0 m/s 750 mmHg 74%
04:00 +16°C° 0 mm 0 m/s 750 mmHg 75%
05:00 +16°C° 0 mm 0 m/s 750 mmHg 77%
06:00 +17°C° 0 mm 0 m/s 750 mmHg 73%
07:00 +19°C° 0 mm 0 m/s 750 mmHg 68%
08:00 +21°C° 0 mm 0 m/s 751 mmHg 63%
09:00 +24°C° 0 mm 1 m/s 751 mmHg 59%
10:00 +25°C° 0 mm 1 m/s 751 mmHg 54%
11:00 +26°C° 0 mm 1 m/s 751 mmHg 50%
12:00 +27°C° 0 mm 1 m/s 750 mmHg 48%
13:00 +28°C° 0 mm 1 m/s 750 mmHg 46%
14:00 +28°C° 0 mm 1 m/s 750 mmHg 44%
15:00 +28°C° 0 mm 1 m/s 750 mmHg 44%
16:00 +28°C° 0 mm 1 m/s 750 mmHg 44%
17:00 +28°C° 0 mm 1 m/s 750 mmHg 44%
18:00 +27°C° 0 mm 1 m/s 749 mmHg 50%
19:00 +26°C° 0 mm 1 m/s 749 mmHg 57%
20:00 +24°C° 0 mm 1 m/s 749 mmHg 63%
21:00 +23°C° 0 mm 1 m/s 749 mmHg 64%
22:00 +22°C° 0 mm 1 m/s 749 mmHg 65%
23:00 +21°C° 0 mm 1 m/s 749 mmHg 66%
Mostrar mais

Necessitamos do seu Consentimento

A Meteoprog e os seus Fornecedores de Serviços podem armazenar e aceder a dados pessoais como cookies, identificadores do dispositivo ou outras tecnologias semelhantes existentes no seu dispositivo e processar estes dados para personalizar conteúdos e anúncios, assim como funcionalidades nas redes sociais e análise de tráfego.

  • Armazenar e/ou aceder a informações no seu dispositivo

    Os cookies, identificadores do dispositivo ou outras informações podem ser armazenados ou acedidos no seu dispositivo, para os fins acima indicados.

  • Anúncios e conteúdos personalizados, medição de anúncios e conteúdos, dados sobre o público-alvo e desenvolvimento de produtos

    Os anúncios e os conteúdos podem ser personalizados com base num perfil. Podem ser adicionados dados adicionais para uma maior personalização dos anúncios e dos conteúdos. A eficácia dos anúncios e dos conteúdos pode ser medida. Podem ser obtidas informações sobre o público que visualizou os anúncios e os conteúdos. Estes dados podem ser usados para desenvolver ou melhorar sistemas, softwares ou a experiência do utilizador.

Ao clicar em "Eu concordo”, permitirá o uso de cookies, identificadores do dispositivo e web beacons mencionados ou outras tecnologias semelhantes. As configurações do navegador do seu dispositivo podem ser alteradas.

Para certos fins, podem ser invocados interesses legítimos ao invés de consentimento. Pode ler mais informação sobre este assunto na nossa Política de Privacidade e Cookies.